Location: Zilina
(0.0000°N, 18.7333°E)
Time: 14:13:56
(UTC+02:00)

Cosmos 1709 Rocket - Pass Details

Date: 19 February 2019
Orbit: 949 x 1001 km, 82.9° (Epoch: 20 October)

Event Time Altitude Azimuth Distance (km) Brightness Sun altitude
Rises 18:22:15 0° 360° (N) 3,659 6.9 -5.7°
Reaches altitude 10° 18:24:46 10° 1° (N) 2,707 6.2 -6.3°
Maximum altitude 18:30:57 77° 87° (E) 989 3.9 -7.9°
Drops below altitude 10° 18:37:05 10° 172° (S) 2,685 6.4 -9.4°
Sets 18:39:34 0° 174° (S) 3,627 7.1 -10.0°
